When you browse on this site, cookies collect data to enhance your experience and personalize the content and advertising you see.
Visit our Privacy Policy to learn more. By continuing to use the site, you agree to this use of cookies and data.
  • en Suisse
  • Liste des pays
  • À 7 jours
  • Température de l'eau
  • Carte satellitaire
  • Carte météo
  • Widgets météo
  • user-avatar
    Se connecter

    Météo par heure à Bayki

    Ce jour, 18 Février, Lundi

    Heure Température Précipitation Vent Pression Humidité
    00:00 -6°C° 0.1 mm 5 m/s 725 mmHg 91%
    01:00 -6°C° 0.1 mm 5 m/s 724 mmHg 90%
    02:00 -6°C° 0.2 mm 5 m/s 724 mmHg 91%
    03:00 -5°C° 0.2 mm 4 m/s 723 mmHg 91%
    04:00 -5°C° 0 mm 4 m/s 723 mmHg 92%
    05:00 -5°C° 0.3 mm 4 m/s 723 mmHg 92%
    06:00 -5°C° 0.3 mm 4 m/s 722 mmHg 92%
    07:00 -5°C° 0.3 mm 4 m/s 722 mmHg 92%
    08:00 -5°C° 0.3 mm 4 m/s 722 mmHg 91%
    09:00 -5°C° 0.3 mm 4 m/s 722 mmHg 91%
    10:00 -4°C° 0.3 mm 4 m/s 722 mmHg 90%
    11:00 -4°C° 0.2 mm 4 m/s 722 mmHg 89%
    12:00 -2°C° 0.2 mm 3 m/s 722 mmHg 88%
    13:00 -2°C° 0.2 mm 3 m/s 722 mmHg 87%
    14:00 -2°C° 0.2 mm 2 m/s 723 mmHg 88%
    15:00 -2°C° 0.2 mm 2 m/s 723 mmHg 89%
    16:00 0°C° 0.2 mm 1 m/s 723 mmHg 90%
    17:00 -1°C° 0.2 mm 1 m/s 724 mmHg 91%
    18:00 -1°C° 0.2 mm 1 m/s 724 mmHg 93%
    19:00 -2°C° 0.2 mm 1 m/s 725 mmHg 95%
    20:00 -2°C° 0.1 mm 1 m/s 725 mmHg 95%
    21:00 -2°C° 0.1 mm 1 m/s 725 mmHg 95%
    22:00 -2°C° 0.1 mm 1 m/s 726 mmHg 96%
    23:00 -4°C° 0.2 mm 2 m/s 726 mmHg 96%

    Demain, 19 Février, Mardi

    Heure Température Précipitation Vent Pression Humidité
    00:00 -5°C° 0.2 mm 2 m/s 727 mmHg 96%
    01:00 -6°C° 0.2 mm 3 m/s 727 mmHg 96%
    02:00 -8°C° 0.2 mm 4 m/s 728 mmHg 94%
    03:00 -11°C° 0.2 mm 5 m/s 729 mmHg 92%
    04:00 -12°C° 0.2 mm 6 m/s 729 mmHg 90%
    05:00 -14°C° 0.1 mm 6 m/s 730 mmHg 90%
    06:00 -15°C° 0.1 mm 6 m/s 731 mmHg 89%
    07:00 -15°C° 0.1 mm 6 m/s 732 mmHg 89%
    08:00 -16°C° 0 mm 6 m/s 732 mmHg 89%
    09:00 -17°C° 0 mm 6 m/s 733 mmHg 88%
    10:00 -17°C° 0 mm 6 m/s 734 mmHg 88%
    11:00 -17°C° 0 mm 5 m/s 734 mmHg 88%
    12:00 -17°C° 0 mm 5 m/s 735 mmHg 88%
    13:00 -17°C° 0 mm 5 m/s 735 mmHg 88%
    14:00 -17°C° 0 mm 5 m/s 736 mmHg 88%
    15:00 -16°C° 0 mm 4 m/s 737 mmHg 89%
    16:00 -16°C° 0 mm 4 m/s 737 mmHg 89%
    17:00 -17°C° 0 mm 4 m/s 738 mmHg 91%
    18:00 -17°C° 0 mm 3 m/s 739 mmHg 92%
    19:00 -18°C° 0 mm 3 m/s 739 mmHg 94%
    20:00 -18°C° 0 mm 2 m/s 740 mmHg 95%
    21:00 -19°C° 0 mm 2 m/s 740 mmHg 96%
    22:00 -20°C° 0 mm 2 m/s 741 mmHg 97%
    23:00 -18°C° 0 mm 1 m/s 741 mmHg 97%

    Après-demain, 20 Février, Mercredi

    Heure Température Précipitation Vent Pression Humidité
    00:00 -18°C° 0 mm 1 m/s 741 mmHg 98%
    01:00 -19°C° 0 mm 1 m/s 741 mmHg 98%
    02:00 -19°C° 0 mm 1 m/s 742 mmHg 98%
    03:00 -20°C° 0 mm 1 m/s 742 mmHg 99%
    04:00 -21°C° 0 mm 1 m/s 742 mmHg 99%
    05:00 -21°C° 0 mm 1 m/s 742 mmHg 98%
    06:00 -21°C° 0 mm 1 m/s 742 mmHg 98%
    07:00 -21°C° 0 mm 1 m/s 743 mmHg 97%
    08:00 -23°C° 0 mm 2 m/s 743 mmHg 95%
    09:00 -20°C° 0 mm 2 m/s 743 mmHg 93%
    10:00 -19°C° 0 mm 2 m/s 743 mmHg 90%
    11:00 -18°C° 0 mm 3 m/s 743 mmHg 89%
    12:00 -17°C° 0 mm 3 m/s 743 mmHg 88%
    13:00 -16°C° 0 mm 4 m/s 743 mmHg 87%
    14:00 -16°C° 0 mm 4 m/s 742 mmHg 88%
    15:00 -16°C° 0 mm 4 m/s 742 mmHg 89%
    16:00 -15°C° 0 mm 4 m/s 742 mmHg 90%
    17:00 -17°C° 0 mm 5 m/s 742 mmHg 90%
    18:00 -17°C° 0 mm 5 m/s 742 mmHg 91%
    19:00 -17°C° 0 mm 5 m/s 741 mmHg 92%
    20:00 -17°C° 0 mm 5 m/s 741 mmHg 91%
    21:00 -16°C° 0 mm 6 m/s 741 mmHg 91%
    22:00 -15°C° 0 mm 6 m/s 740 mmHg 90%
    23:00 -15°C° 0 mm 6 m/s 740 mmHg 90%

    21 Février, Jeudi

    Heure Température Précipitation Vent Pression Humidité
    00:00 -15°C° 0 mm 6 m/s 739 mmHg 90%
    01:00 -15°C° 0 mm 7 m/s 739 mmHg 89%
    02:00 -14°C° 0.1 mm 7 m/s 738 mmHg 90%
    03:00 -14°C° 0.1 mm 7 m/s 738 mmHg 90%
    04:00 -13°C° 0.1 mm 7 m/s 738 mmHg 90%
    05:00 -13°C° 0.1 mm 7 m/s 738 mmHg 91%
    06:00 -11°C° 0.1 mm 6 m/s 737 mmHg 91%
    07:00 -11°C° 0.1 mm 6 m/s 737 mmHg 91%
    08:00 -10°C° 0.1 mm 6 m/s 737 mmHg 91%
    09:00 -11°C° 0.1 mm 7 m/s 737 mmHg 91%
    10:00 -11°C° 0.1 mm 7 m/s 737 mmHg 91%
    11:00 -9°C° 0.1 mm 7 m/s 738 mmHg 91%
    12:00 -9°C° 0.1 mm 7 m/s 738 mmHg 91%
    13:00 -9°C° 0.1 mm 6 m/s 738 mmHg 90%
    14:00 -9°C° 0.1 mm 6 m/s 738 mmHg 90%
    15:00 -9°C° 0.1 mm 6 m/s 738 mmHg 90%
    16:00 -9°C° 0.1 mm 6 m/s 738 mmHg 90%
    17:00 -9°C° 0.1 mm 6 m/s 738 mmHg 90%
    18:00 -9°C° 0.1 mm 6 m/s 738 mmHg 90%
    19:00 -9°C° 0.1 mm 6 m/s 738 mmHg 90%
    20:00 -9°C° 0.2 mm 6 m/s 738 mmHg 90%
    21:00 -9°C° 0.2 mm 6 m/s 738 mmHg 90%
    22:00 -9°C° 0.2 mm 6 m/s 738 mmHg 90%
    23:00 -8°C° 0.2 mm 6 m/s 738 mmHg 90%

    22 Février, Vendredi

    Heure Température Précipitation Vent Pression Humidité
    00:00 -8°C° 0.2 mm 6 m/s 738 mmHg 90%
    01:00 -6°C° 0.2 mm 6 m/s 737 mmHg 90%
    02:00 -6°C° 0.1 mm 6 m/s 737 mmHg 90%
    03:00 -6°C° 0.1 mm 6 m/s 737 mmHg 89%
    04:00 -7°C° 0.1 mm 7 m/s 737 mmHg 89%
    05:00 -6°C° 0.1 mm 6 m/s 737 mmHg 89%
    06:00 -6°C° 0.1 mm 6 m/s 736 mmHg 89%
    07:00 -6°C° 0.1 mm 6 m/s 736 mmHg 89%
    08:00 -5°C° 0.1 mm 6 m/s 736 mmHg 88%
    09:00 -5°C° 0.1 mm 6 m/s 736 mmHg 87%
    10:00 -4°C° 0.1 mm 6 m/s 736 mmHg 86%
    11:00 -4°C° 0.2 mm 6 m/s 735 mmHg 88%
    12:00 -4°C° 0.2 mm 6 m/s 735 mmHg 89%
    13:00 -4°C° 0.2 mm 5 m/s 735 mmHg 90%
    14:00 -4°C° 0.4 mm 5 m/s 735 mmHg 89%
    15:00 -4°C° 0.4 mm 5 m/s 734 mmHg 89%
    16:00 -4°C° 0.4 mm 5 m/s 734 mmHg 88%
    17:00 -4°C° 0.1 mm 5 m/s 734 mmHg 89%
    18:00 -4°C° 0.1 mm 4 m/s 734 mmHg 90%
    19:00 -5°C° 0.1 mm 3 m/s 734 mmHg 92%
    20:00 -7°C° 0.1 mm 4 m/s 734 mmHg 90%
    21:00 -7°C° 0.1 mm 5 m/s 735 mmHg 88%
    22:00 -9°C° 0.1 mm 6 m/s 735 mmHg 87%
    23:00 -10°C° 0 mm 5 m/s 735 mmHg 88%

    23 Février, Samedi

    Heure Température Précipitation Vent Pression Humidité
    00:00 -10°C° 0 mm 4 m/s 736 mmHg 90%
    01:00 -11°C° 0 mm 4 m/s 736 mmHg 92%
    02:00 -10°C° 0.3 mm 4 m/s 736 mmHg 92%
    03:00 -10°C° 0.3 mm 4 m/s 737 mmHg 92%
    04:00 -11°C° 0.3 mm 5 m/s 737 mmHg 93%
    05:00 -11°C° 0.1 mm 5 m/s 738 mmHg 93%
    06:00 -10°C° 0.1 mm 4 m/s 739 mmHg 94%
    07:00 -10°C° 0.1 mm 4 m/s 739 mmHg 95%
    08:00 -10°C° 0.1 mm 4 m/s 740 mmHg 95%
    09:00 -12°C° 0.1 mm 5 m/s 741 mmHg 95%
    10:00 -13°C° 0.1 mm 5 m/s 742 mmHg 95%
    11:00 -13°C° 0.1 mm 5 m/s 742 mmHg 94%
    12:00 -12°C° 0.1 mm 4 m/s 743 mmHg 92%
    13:00 -12°C° 0.1 mm 4 m/s 744 mmHg 91%
    14:00 -12°C° 0.1 mm 4 m/s 744 mmHg 91%
    15:00 -14°C° 0.1 mm 4 m/s 745 mmHg 91%
    16:00 -14°C° 0.1 mm 4 m/s 745 mmHg 91%
    17:00 -13°C° 0.1 mm 3 m/s 745 mmHg 92%
    18:00 -14°C° 0.1 mm 3 m/s 746 mmHg 93%
    19:00 -15°C° 0.1 mm 3 m/s 746 mmHg 95%
    20:00 -15°C° 0 mm 2 m/s 747 mmHg 96%
    21:00 -16°C° 0 mm 2 m/s 747 mmHg 96%
    22:00 -15°C° 0 mm 1 m/s 747 mmHg 97%
    23:00 -15°C° 0 mm 1 m/s 747 mmHg 97%
    Voir plus